User: anonymous   Login
Location: Churchill
(58.7670°N, 94.1670°W)
Time: 20:47:50
(UTC-05:00)
Language:

Cosmos 2142 Rocket - Orbit

View from above orbital plane
View from above orbital plane
View from above satellite
View from above satellite

Ground track
Ground track

The orbit data is extracted from the following two-line orbital elements,

1 21231U 91029B   15116.53078766  .00000087  00000-0  74095-4 0  9990
2 21231 082.9512 328.3836 0033844 255.8885 165.5412 13.75677024206176
Epoch (UTC): 26 April 2015 12:44:20
Eccentricity: 0.0033844
inclination: 82.9512°
perigee height: 954 km
apogee height: 1004 km
right ascension of ascending node: 328.3836°
argument of perigee: 255.8885°
revolutions per day: 13.75677024
mean anomaly at epoch: 165.5412°
orbit number at epoch: 20617

The dashed part of the orbit path shows where the satellite is in the earth's shadow,  

DLR